[[{"header":{"parameterUnit":"m.s-1","parameterCategory":1,"la1":30.2991,"la2":30.254,"lo1":-89.0895,"lo2":-89.0444,"dy":0.0017,"dx":0.0017,"nx":28,"ny":28,"refTime":"2023-03-31T21:00:00:Z","depth":0,"parameterNumber":2,"parameterNumberName":"U-component_of_WINDS"},"data":[0,0,0,0,0,0,0,0,0,0,0,0,0,0,0,0,0,0,0,0,0,0,0,0,0,0,0,0,0,0,0,0,0,0,0,0,0,0,0,0,0,0,0,0,0,0,0,0,0,0,0,0,0,0,0,0,0,0,-3.0556,-3.0557,0,-3.0626,-3.0627,-3.0628,-3.0631,-3.063,-3.0629,-3.0628,-3.0701,-3.0703,-3.0706,0,0,0,0,0,0,0,0,0,0,0,0,0,-3.0426,-3.0428,-3.0556,-3.0557,-3.0558,-3.0626,-3.0627,-3.0628,-3.0631,-3.063,-3.0629,-3.0628,-3.07,-3.0703,-3.0706,0,0,0,0,0,0,0,0,0,0,0,0,0,-3.0488,-3.0429,-3.0556,-3.0567,-3.0569,-3.0626,-3.0627,-3.0628,-3.0631,-3.063,-3.0628,-3.0627,-3.0699,-3.0703,-3.0707,-3.0757,0,0,-3.0719,-3.0721,0,0,0,0,0,0,0,0,-3.0484,-3.0493,-3.0565,-3.0566,-3.0568,-3.0618,-3.0608,-3.0672,-3.0631,-3.0607,-3.0628,-3.0627,-3.0674,-3.068,-3.0696,-3.0761,-3.0764,-3.0719,-3.0722,-3.0724,-3.0725,0,0,0,0,0,0,0,-3.048,-3.049,-3.0584,-3.0566,-3.0568,-3.057,-3.0577,-3.062,-3.0647,-3.0609,-3.061,-3.0618,-3.0675,-3.0692,-3.0698,-3.0765,-3.0719,-3.0723,-3.0725,-3.0727,-3.0876,-3.0877,0,0,0,0,0,0,-3.0473,-3.0486,-3.0581,-3.0586,-3.0522,-3.0573,-3.0581,-3.0604,-3.0647,-3.0652,-3.0619,-3.0618,-3.0686,-3.0693,-3.0701,-3.0763,-3.0724,-3.0727,-3.073,-3.0874,-3.0876,-3.0878,0,0,0,0,0,0,-3.0471,-3.0482,-3.0579,-3.0536,-3.0549,-3.0576,-3.0602,-3.0606,-3.0623,-3.0654,-3.0659,-3.0631,-3.0685,-3.0695,-3.0743,-3.0765,-3.0729,-3.0733,-3.0873,-3.0875,-3.0877,-3.0888,0,0,0,0,0,0,-3.0467,-3.0481,-3.0499,-3.0536,-3.0551,-3.0619,-3.0603,-3.0608,-3.063,-3.0629,-3.0667,-3.0672,-3.0685,-3.0737,-3.0747,-3.077,-3.0736,-3.0871,-3.0874,-3.0876,-3.0885,-3.089,-3.0894,0,0,0,0,0,-3.0462,-3.0499,-3.05,-3.0512,-3.0575,-3.0621,-3.0629,-3.0643,-3.0631,-3.0651,-3.0671,-3.0671,-3.0762,-3.0742,-3.0754,-3.0778,-3.0869,-3.0873,-3.0876,-3.0883,-3.0889,-3.0894,0,0,0,0,0,0,-3.0464,-3.0504,-3.0506,-3.0556,-3.0585,-3.0621,-3.0645,-3.0648,-3.0681,-3.0679,-3.0695,-3.0704,-3.0752,-3.0771,-3.0748,-3.083,-3.0814,-3.082,-3.0816,-3.0822,-3.0826,-3.082,-3.074,0,0,0,0,0,-3.047,-3.0503,-3.0537,-3.0579,-3.0593,-3.0617,-3.0638,-3.0646,-3.0677,-3.0689,-3.0713,-3.0743,-3.0779,-3.0802,-3.0836,-3.0889,-3.0898,-3.0912,-3.0916,-3.0919,-3.0924,-3.0954,-3.0961,-3.0889,-3.0889,-3.0889,0,0,-3.0483,-3.0509,-3.0529,-3.058,-3.0603,-3.0638,-3.0627,-3.0664,-3.069,-3.0695,-3.0742,-3.0761,-3.0796,-3.0847,-3.0871,-3.0864,-3.0946,-3.0924,-3.0926,-3.0929,-3.0958,-3.0965,-3.0971,-3.0891,-3.0891,-3.0891,0,0,-3.0524,-3.0548,-3.0584,-3.0609,-3.0645,-3.0661,-3.067,-3.0706,-3.0719,-3.0767,-3.0771,-3.0804,-3.0864,-3.0889,-3.091,-3.0964,-3.0965,-3.0975,-3.0996,-3.1026,-3.1032,-3.1037,-3.1056,-3.1062,-3.098,-3.098,-3.098,0,-3.0535,-3.0587,-3.0603,-3.0641,-3.0663,-3.067,-3.0708,-3.0731,-3.0776,-3.0792,-3.0784,-3.0861,-3.0885,-3.0943,-3.0956,-3.0973,-3.0984,-3.097,-3.103,-3.1035,-3.104,-3.1058,-3.1065,-3.0981,-3.0981,-3.0981,-3.0981,0,-3.06,-3.0636,-3.0662,-3.0706,-3.0732,-3.0769,-3.0792,-3.0816,-3.0824,-3.0841,-3.0891,-3.0921,-3.0962,-3.0977,-3.0984,-3.1036,-3.1031,-3.1026,-3.101,-3.1047,-3.1065,-3.1072,-3.0982,-3.0982,-3.0982,-3.0981,0,0,-3.0641,-3.0695,-3.0704,-3.0725,-3.0766,-3.0795,-3.0834,-3.0875,-3.0895,-3.0928,-3.0961,-3.1014,-3.101,-3.1034,-3.1045,-3.1071,-3.1112,-3.1063,-3.1064,-3.107,-3.1172,-3.1174,-3.1181,-3.1114,-3.1116,-3.1117,-3.1168,0,-3.0686,-3.0754,-3.0771,-3.083,-3.0864,-3.0873,-3.0907,-3.0937,-3.0955,-3.0988,-3.1008,-3.1045,-3.1038,-3.1053,-3.1079,-3.1101,-3.1132,-3.1098,-3.1145,-3.1147,-3.1134,-3.1191,-3.1193,-3.124,-3.1175,-3.1177,-3.1178,0,-3.0746,-3.078,-3.0842,-3.0881,-3.0896,-3.0926,-3.0966,-3.0997,-3.1032,-3.1043,-3.1071,-3.108,-3.1122,-3.1106,-3.1165,-3.1141,-3.1162,-3.1177,-3.1179,-3.1182,-3.1163,-3.1195,-3.1255,-3.1262,-3.1189,-3.1188,-3.1187,0,-3.0769,-3.0831,-3.0876,-3.0894,-3.094,-3.0961,-3.0982,-3.1015,-3.1039,-3.1074,-3.109,-3.113,-3.1151,-3.1182,-3.1202,-3.1189,-3.126,-3.1245,-3.1271,-3.127,-3.1283,-3.1282,-3.1347,-3.1299,-3.1299,-3.1299,-3.1299,0,-3.0817,-3.0854,-3.0887,-3.0915,-3.0958,-3.0978,-3.102,-3.1041,-3.1072,-3.1104,-3.1115,-3.1146,-3.1171,-3.1206,-3.1222,-3.1268,-3.1278,-3.1289,-3.1293,-3.1287,-3.1286,-3.13,-3.1296,-3.1301,-3.13,-3.13,-3.13,0,-3.0848,-3.0872,-3.0922,-3.0962,-3.0974,-3.1003,-3.1038,-3.1066,-3.1086,-3.1128,-3.1139,-3.117,-3.1211,-3.1235,-3.1288,-3.1299,-3.135,-3.1353,-3.1338,-3.1339,-3.1363,-3.136,-3.1438,-3.1449,-3.1395,-3.1396,-3.1396,0,-3.0876,-3.0905,-3.0949,-3.0972,-3.0993,-3.1029,-3.1054,-3.1076,-3.1102,-3.1145,-3.1168,-3.121,-3.1245,-3.1311,-3.1339,-3.1379,-3.1383,-3.1407,-3.1388,-3.1383,-3.1382,-3.1379,-3.1383,-3.141,-3.141,-3.141,-3.1411,0,-3.0923,-3.0934,-3.0968,-3.1008,-3.1037,-3.107,-3.1102,-3.112,-3.1148,-3.1177,-3.1219,-3.1246,-3.13,-3.1342,-3.1386,-3.1408,-3.1414,-3.1417,-3.1425,-3.1419,-3.1408,-3.1414,-3.1345,-3.1414,-3.1414,-3.1414,-3.1414,-3.1413,-3.0953,-3.098,-3.1015,-3.1054,-3.1081,-3.1112,-3.114,-3.1164,-3.12,-3.1245,-3.1257,-3.1302,-3.1338,-3.1397,-3.1421,-3.1457,-3.1453,-3.1464,-3.1467,-3.1469,-3.1469,-3.1404,-3.1465,-3.1465,-3.1465,-3.1465,-3.1465,0,-3.1,-3.1024,-3.1059,-3.1104,-3.1136,-3.114,-3.1177,-3.1202,-3.1242,-3.1275,-3.1309,-3.1359,-3.1401,-3.1433,-3.1476,-3.1499,-3.1503,-3.1509,-3.1507,-3.1512,-3.1471,-3.146,-3.1505,-3.1505,-3.1505,-3.1505,-3.1505,-3.1505,-3.1028,-3.1073,-3.1088,-3.1148,-3.1172,-3.1216,-3.1237,-3.1265,-3.1292,-3.1347,-3.1382,-3.1403,-3.1436,-3.1482,-3.1521,-3.1529,-3.1544,-3.155,-3.1559,-3.1519,-3.1515,-3.1511,-3.15,-3.1553,-3.1553,-3.1597,-3.1597,-3.1597]},{"header":{"parameterUnit":"m.s-1","parameterCategory":1,"la1":30.2991,"la2":30.254,"lo1":-89.0895,"lo2":-89.0444,"dy":0.0017,"dx":0.0017,"nx":28,"ny":28,"refTime":"2023-03-31T21:00:00:Z","depth":0,"parameterNumber":3,"parameterNumberName":"V-component_of_WINDS"},"data":[0,0,0,0,0,0,0,0,0,0,0,0,0,0,0,0,0,0,0,0,0,0,0,0,0,0,0,0,0,0,0,0,0,0,0,0,0,0,0,0,0,0,0,0,0,0,0,0,0,0,0,0,0,0,0,0,0,0,6.3165,6.3165,0,6.3101,6.31,6.31,6.308,6.308,6.308,6.3081,6.3008,6.3006,6.3003,0,0,0,0,0,0,0,0,0,0,0,0,0,6.3267,6.3265,6.3165,6.3165,6.3164,6.3101,6.31,6.3099,6.308,6.308,6.3081,6.3081,6.3009,6.3006,6.3003,0,0,0,0,0,0,0,0,0,0,0,0,0,6.3215,6.3265,6.3165,6.3147,6.3144,6.3101,6.31,6.3099,6.308,6.308,6.3081,6.3081,6.301,6.3006,6.3003,6.2972,0,0,6.2993,6.2991,0,0,0,0,0,0,0,0,6.3218,6.3211,6.315,6.3148,6.3145,6.3099,6.3109,6.3056,6.308,6.3104,6.3081,6.3081,6.3037,6.3032,6.3018,6.2969,6.2965,6.2992,6.299,6.2989,6.2988,0,0,0,0,0,0,0,6.3221,6.3214,6.314,6.3149,6.3146,6.314,6.3133,6.3099,6.3068,6.3102,6.31,6.3093,6.3036,6.3022,6.3016,6.2964,6.2992,6.2989,6.2987,6.2986,6.289,6.2889,0,0,0,0,0,0,6.3229,6.3217,6.3142,6.3138,6.3184,6.3138,6.313,6.3113,6.3069,6.3063,6.3093,6.3093,6.3027,6.302,6.3014,6.2977,6.2989,6.2986,6.2984,6.289,6.289,6.2889,0,0,0,0,0,0,6.3231,6.3222,6.3144,6.3177,6.3167,6.3136,6.3117,6.3112,6.3097,6.3062,6.3056,6.3084,6.3027,6.3019,6.2984,6.2974,6.2984,6.2981,6.2891,6.289,6.2889,6.2902,0,0,0,0,0,0,6.3234,6.3223,6.3212,6.3177,6.3165,6.3116,6.3116,6.311,6.3092,6.3091,6.3052,6.3046,6.3027,6.2989,6.2981,6.297,6.2978,6.2892,6.2891,6.289,6.2902,6.2902,6.2901,0,0,0,0,0,6.3238,6.3215,6.3211,6.3202,6.315,6.3116,6.3109,6.3089,6.3092,6.308,6.3058,6.3047,6.2977,6.2986,6.2976,6.2964,6.2892,6.2891,6.289,6.2902,6.2902,6.2901,0,0,0,0,0,0,6.3246,6.321,6.3205,6.3171,6.3148,6.3113,6.3097,6.3089,6.3061,6.3061,6.3036,6.3027,6.2995,6.2976,6.2986,6.2934,6.2934,6.2931,6.2947,6.2946,6.2946,6.2951,6.2976,0,0,0,0,0,6.3245,6.3222,6.3191,6.3164,6.3153,6.3127,6.3111,6.3099,6.3072,6.3061,6.3036,6.3009,6.2981,6.2962,6.2934,6.29,6.2892,6.2887,6.2887,6.2887,6.2884,6.2867,6.2865,6.2885,6.2885,6.2885,0,0,6.324,6.3218,6.3204,6.3165,6.3145,6.3121,6.3118,6.3092,6.3074,6.3056,6.3023,6.3004,6.2972,6.2939,6.2922,6.2921,6.2877,6.2885,6.2885,6.2882,6.2866,6.2864,6.2862,6.2884,6.2885,6.2885,0,0,6.322,6.3201,6.3178,6.3159,6.313,6.3114,6.3109,6.3076,6.3064,6.3032,6.3019,6.2997,6.2948,6.2927,6.291,6.2887,6.2877,6.2879,6.2875,6.2859,6.2858,6.2856,6.285,6.2848,6.2876,6.2876,6.2876,0,6.3217,6.3182,6.3166,6.3142,6.3126,6.3113,6.3089,6.3071,6.3033,6.3022,6.3023,6.2965,6.2942,6.2905,6.29,6.2886,6.288,6.2882,6.286,6.2858,6.2856,6.285,6.2847,6.2877,6.2877,6.2877,6.2876,0,6.3181,6.3158,6.3142,6.3111,6.3093,6.3069,6.3049,6.3032,6.3023,6.3007,6.2975,6.2948,6.2916,6.2906,6.2894,6.2868,6.2869,6.2865,6.2865,6.2855,6.2849,6.2846,6.2877,6.2877,6.2877,6.2877,0,0,6.3161,6.3125,6.312,6.3107,6.3076,6.3057,6.3033,6.3005,6.2993,6.2968,6.2948,6.291,6.2908,6.2889,6.2875,6.2861,6.2848,6.2859,6.2858,6.2859,6.2819,6.2823,6.282,6.2842,6.2841,6.2841,6.2822,0,6.3138,6.3098,6.3085,6.3051,6.303,6.3019,6.2999,6.2978,6.2963,6.2942,6.2925,6.2899,6.2897,6.2886,6.2872,6.2852,6.2839,6.2853,6.2822,6.2821,6.2831,6.2816,6.2819,6.2803,6.2819,6.2819,6.2819,0,6.3105,6.3084,6.305,6.3026,6.3016,6.2998,6.2974,6.2954,6.2931,6.2921,6.2902,6.2891,6.2866,6.2869,6.2835,6.2845,6.2832,6.2821,6.282,6.2815,6.2819,6.2812,6.2797,6.2795,6.2814,6.2814,6.2815,0,6.3096,6.3059,6.3035,6.3024,6.2994,6.2983,6.297,6.2947,6.2932,6.291,6.2901,6.2875,6.2861,6.2841,6.2823,6.2827,6.2792,6.2792,6.2783,6.2783,6.2775,6.2775,6.2758,6.2766,6.2766,6.2766,6.2766,0,6.3071,6.3051,6.3031,6.3016,6.2993,6.2978,6.2956,6.2942,6.2923,6.2904,6.2892,6.2875,6.2853,6.2833,6.2819,6.2794,6.2787,6.2779,6.2775,6.278,6.2781,6.277,6.2771,6.2766,6.2766,6.2766,6.2766,0,6.3057,6.3043,6.3016,6.2992,6.2986,6.297,6.295,6.2934,6.2921,6.2898,6.2892,6.287,6.2847,6.2828,6.2795,6.2786,6.276,6.2756,6.2769,6.2767,6.276,6.2761,6.2734,6.273,6.2741,6.2741,6.2741,0,6.3042,6.3027,6.3003,6.2992,6.298,6.2961,6.2948,6.2933,6.2919,6.2894,6.2882,6.2858,6.2838,6.2801,6.2781,6.2758,6.2753,6.2745,6.2749,6.2755,6.2754,6.2756,6.2755,6.2745,6.2745,6.2745,6.2744,0,6.3018,6.3013,6.2995,6.2976,6.2961,6.2944,6.2927,6.2918,6.29,6.2885,6.2863,6.2848,6.2818,6.2795,6.277,6.2755,6.2747,6.2744,6.2741,6.2745,6.2754,6.2751,6.2769,6.2744,6.2744,6.2744,6.2744,6.2744,6.3003,6.2991,6.2974,6.2955,6.2942,6.2927,6.2913,6.29,6.2882,6.2858,6.285,6.2828,6.2807,6.2774,6.276,6.2741,6.274,6.2735,6.2734,6.2733,6.2734,6.2758,6.2736,6.2736,6.2736,6.2736,6.2736,0,6.298,6.297,6.2953,6.2932,6.2918,6.2915,6.2897,6.2884,6.2866,6.2849,6.2831,6.2807,6.2785,6.2766,6.2744,6.2733,6.2729,6.2728,6.2728,6.2725,6.2735,6.2741,6.2732,6.2732,6.2732,6.2732,6.2732,6.2732,6.2966,6.2946,6.294,6.2913,6.2902,6.2882,6.2872,6.2859,6.2846,6.282,6.2804,6.2792,6.2775,6.2752,6.2733,6.2728,6.272,6.272,6.2714,6.2724,6.2724,6.2725,6.273,6.2719,6.2719,6.2706,6.2705,6.2705]}]]